• în România
  • Lista ţărilor
  • Pe 7 zile
  • Temperatura apei
  • Hartă satelitară
  • Meteo pe hartă
  • Widget-uri
  • user-avatar
    Intrare

    Meteo pe oră la Oktyabrskiy Gorodok

    Astăzi, 20 Septembrie, Joi

    Timp Temperatura Precipitaţii Vânt Presiune Umiditate
    00:00 +13°C° 0 mm 3 m/s 744 mmHg 75%
    01:00 +13°C° 0 mm 3 m/s 744 mmHg 79%
    02:00 +13°C° 0 mm 3 m/s 744 mmHg 83%
    03:00 +12°C° 0 mm 3 m/s 744 mmHg 90%
    04:00 +12°C° 0 mm 3 m/s 744 mmHg 91%
    05:00 +12°C° 0 mm 3 m/s 744 mmHg 93%
    06:00 +12°C° 0 mm 3 m/s 744 mmHg 95%
    07:00 +14°C° 0 mm 3 m/s 744 mmHg 89%
    08:00 +15°C° 0 mm 4 m/s 744 mmHg 84%
    09:00 +18°C° 0 mm 4 m/s 744 mmHg 78%
    10:00 +19°C° 0 mm 5 m/s 744 mmHg 71%
    11:00 +21°C° 0 mm 5 m/s 744 mmHg 63%
    12:00 +23°C° 0 mm 6 m/s 744 mmHg 56%
    13:00 +23°C° 0 mm 6 m/s 744 mmHg 54%
    14:00 +24°C° 0 mm 6 m/s 743 mmHg 52%
    15:00 +26°C° 0 mm 6 m/s 743 mmHg 50%
    16:00 +23°C° 0 mm 5 m/s 743 mmHg 56%
    17:00 +22°C° 0 mm 4 m/s 742 mmHg 62%
    18:00 +21°C° 0 mm 3 m/s 742 mmHg 68%
    19:00 +20°C° 0 mm 3 m/s 742 mmHg 72%
    20:00 +19°C° 0 mm 3 m/s 742 mmHg 76%
    21:00 +19°C° 0 mm 4 m/s 742 mmHg 80%
    22:00 +18°C° 0.1 mm 4 m/s 742 mmHg 83%
    23:00 +18°C° 0.1 mm 4 m/s 742 mmHg 86%

    Mâine, 21 Septembrie, Vineri

    Timp Temperatura Precipitaţii Vânt Presiune Umiditate
    00:00 +17°C° 0.1 mm 4 m/s 742 mmHg 89%
    01:00 +17°C° 0 mm 4 m/s 742 mmHg 90%
    02:00 +17°C° 0 mm 4 m/s 743 mmHg 91%
    03:00 +15°C° 0 mm 4 m/s 743 mmHg 93%
    04:00 +14°C° 0 mm 4 m/s 743 mmHg 93%
    05:00 +14°C° 0 mm 4 m/s 744 mmHg 93%
    06:00 +13°C° 0 mm 4 m/s 744 mmHg 93%
    07:00 +14°C° 0 mm 4 m/s 745 mmHg 87%
    08:00 +15°C° 0 mm 5 m/s 745 mmHg 82%
    09:00 +16°C° 0 mm 5 m/s 745 mmHg 76%
    10:00 +17°C° 0 mm 5 m/s 746 mmHg 72%
    11:00 +19°C° 0 mm 5 m/s 746 mmHg 68%
    12:00 +20°C° 0 mm 5 m/s 747 mmHg 64%
    13:00 +20°C° 0 mm 5 m/s 747 mmHg 63%
    14:00 +21°C° 0 mm 4 m/s 747 mmHg 62%
    15:00 +21°C° 0 mm 4 m/s 747 mmHg 61%
    16:00 +20°C° 0 mm 4 m/s 747 mmHg 66%
    17:00 +18°C° 0 mm 3 m/s 748 mmHg 71%
    18:00 +17°C° 0 mm 2 m/s 748 mmHg 77%
    19:00 +16°C° 0 mm 2 m/s 748 mmHg 80%
    20:00 +16°C° 0 mm 2 m/s 748 mmHg 83%
    21:00 +15°C° 0 mm 2 m/s 749 mmHg 86%
    22:00 +15°C° 0 mm 1 m/s 749 mmHg 87%
    23:00 +14°C° 0 mm 1 m/s 749 mmHg 87%

    Poimâine, 22 Septembrie, Sâmbătă

    Timp Temperatura Precipitaţii Vânt Presiune Umiditate
    00:00 +14°C° 0 mm 1 m/s 749 mmHg 88%
    01:00 +14°C° 0 mm 1 m/s 749 mmHg 88%
    02:00 +14°C° 0 mm 1 m/s 750 mmHg 88%
    03:00 +13°C° 0 mm 0 m/s 750 mmHg 89%
    04:00 +12°C° 0 mm 0 m/s 750 mmHg 89%
    05:00 +12°C° 0 mm 0 m/s 750 mmHg 89%
    06:00 +12°C° 0 mm 0 m/s 750 mmHg 89%
    07:00 +14°C° 0 mm 0 m/s 750 mmHg 83%
    08:00 +16°C° 0 mm 0 m/s 751 mmHg 76%
    09:00 +17°C° 0 mm 0 m/s 751 mmHg 69%
    10:00 +20°C° 0 mm 1 m/s 751 mmHg 65%
    11:00 +22°C° 0 mm 1 m/s 751 mmHg 60%
    12:00 +23°C° 0 mm 1 m/s 750 mmHg 55%
    13:00 +23°C° 0 mm 1 m/s 750 mmHg 53%
    14:00 +23°C° 0 mm 2 m/s 750 mmHg 52%
    15:00 +24°C° 0 mm 2 m/s 750 mmHg 50%
    16:00 +23°C° 0 mm 2 m/s 749 mmHg 54%
    17:00 +20°C° 0 mm 2 m/s 749 mmHg 58%
    18:00 +19°C° 0 mm 2 m/s 749 mmHg 62%
    19:00 +19°C° 0 mm 2 m/s 749 mmHg 65%
    20:00 +18°C° 0 mm 2 m/s 749 mmHg 68%
    21:00 +17°C° 0 mm 2 m/s 749 mmHg 70%
    22:00 +17°C° 0 mm 2 m/s 749 mmHg 71%
    23:00 +17°C° 0 mm 2 m/s 749 mmHg 73%

    23 Septembrie, Duminică

    Timp Temperatura Precipitaţii Vânt Presiune Umiditate
    00:00 +16°C° 0 mm 2 m/s 749 mmHg 74%
    01:00 +16°C° 0 mm 2 m/s 749 mmHg 75%
    02:00 +16°C° 0 mm 2 m/s 748 mmHg 75%
    03:00 +15°C° 0 mm 2 m/s 748 mmHg 76%
    04:00 +15°C° 0 mm 2 m/s 748 mmHg 76%
    05:00 +15°C° 0 mm 2 m/s 748 mmHg 76%
    06:00 +13°C° 0 mm 3 m/s 748 mmHg 75%
    07:00 +16°C° 0 mm 3 m/s 748 mmHg 66%
    08:00 +18°C° 0 mm 4 m/s 747 mmHg 58%
    09:00 +20°C° 0 mm 5 m/s 747 mmHg 49%
    10:00 +21°C° 0 mm 5 m/s 747 mmHg 45%
    11:00 +22°C° 0 mm 6 m/s 747 mmHg 41%
    12:00 +23°C° 0 mm 6 m/s 746 mmHg 37%
    13:00 +23°C° 0 mm 6 m/s 746 mmHg 34%
    14:00 +23°C° 0 mm 6 m/s 745 mmHg 31%
    15:00 +23°C° 0 mm 6 m/s 744 mmHg 28%
    16:00 +22°C° 0 mm 6 m/s 744 mmHg 31%
    17:00 +20°C° 0 mm 5 m/s 743 mmHg 34%
    18:00 +19°C° 0 mm 4 m/s 743 mmHg 37%
    19:00 +18°C° 0 mm 4 m/s 742 mmHg 37%
    20:00 +18°C° 0 mm 4 m/s 742 mmHg 37%
    21:00 +16°C° 0 mm 5 m/s 741 mmHg 38%
    22:00 +16°C° 0 mm 5 m/s 741 mmHg 40%
    23:00 +16°C° 0 mm 5 m/s 740 mmHg 42%

    24 Septembrie, Luni

    Timp Temperatura Precipitaţii Vânt Presiune Umiditate
    00:00 +16°C° 0 mm 5 m/s 740 mmHg 44%
    01:00 +16°C° 0 mm 5 m/s 740 mmHg 46%
    02:00 +17°C° 0 mm 4 m/s 739 mmHg 48%
    03:00 +15°C° 0 mm 4 m/s 739 mmHg 49%
    04:00 +14°C° 1.3 mm 4 m/s 739 mmHg 59%
    05:00 +14°C° 1.3 mm 4 m/s 739 mmHg 68%
    06:00 +13°C° 1.3 mm 4 m/s 739 mmHg 78%
    07:00 +12°C° 2.6 mm 5 m/s 739 mmHg 81%
    08:00 +10°C° 2.6 mm 6 m/s 739 mmHg 83%
    09:00 +9°C° 2.6 mm 7 m/s 739 mmHg 86%
    10:00 +10°C° 0.5 mm 7 m/s 739 mmHg 82%
    11:00 +11°C° 0.5 mm 7 m/s 740 mmHg 77%
    12:00 +11°C° 0.5 mm 8 m/s 740 mmHg 73%
    13:00 +12°C° 0 mm 7 m/s 740 mmHg 68%
    14:00 +14°C° 0 mm 7 m/s 741 mmHg 63%
    15:00 +15°C° 0 mm 6 m/s 741 mmHg 59%
    16:00 +14°C° 0 mm 5 m/s 741 mmHg 62%
    17:00 +13°C° 0 mm 4 m/s 741 mmHg 66%
    18:00 +12°C° 0 mm 3 m/s 742 mmHg 70%
    19:00 +12°C° 0 mm 3 m/s 742 mmHg 72%
    20:00 +12°C° 0 mm 2 m/s 741 mmHg 74%
    21:00 +10°C° 0 mm 2 m/s 741 mmHg 77%
    22:00 +10°C° 0 mm 2 m/s 741 mmHg 77%
    23:00 +11°C° 0 mm 1 m/s 741 mmHg 78%

    25 Septembrie, Marţi

    Timp Temperatura Precipitaţii Vânt Presiune Umiditate
    00:00 +11°C° 0 mm 1 m/s 741 mmHg 78%
    01:00 +10°C° 0 mm 2 m/s 741 mmHg 77%
    02:00 +10°C° 0 mm 2 m/s 741 mmHg 76%
    03:00 +10°C° 0 mm 2 m/s 740 mmHg 75%
    04:00 +10°C° 0 mm 3 m/s 740 mmHg 72%
    05:00 +10°C° 0 mm 4 m/s 739 mmHg 70%
    06:00 +11°C° 0 mm 4 m/s 739 mmHg 67%
    07:00 +10°C° 0.4 mm 5 m/s 739 mmHg 71%
    08:00 +10°C° 0.4 mm 6 m/s 738 mmHg 74%
    09:00 +10°C° 0.4 mm 7 m/s 738 mmHg 78%
    10:00 +10°C° 0.2 mm 8 m/s 738 mmHg 77%
    11:00 +11°C° 0.2 mm 8 m/s 737 mmHg 77%
    12:00 +11°C° 0.2 mm 8 m/s 737 mmHg 76%
    13:00 +12°C° 0.1 mm 8 m/s 737 mmHg 72%
    14:00 +12°C° 0.1 mm 8 m/s 737 mmHg 68%
    15:00 +13°C° 0.1 mm 8 m/s 736 mmHg 64%
    16:00 +12°C° 0 mm 7 m/s 736 mmHg 63%
    17:00 +13°C° 0 mm 6 m/s 736 mmHg 62%
    18:00 +11°C° 0 mm 6 m/s 737 mmHg 61%
    19:00 +10°C° 0 mm 6 m/s 737 mmHg 62%
    20:00 +9°C° 0 mm 6 m/s 737 mmHg 63%
    21:00 +8°C° 0 mm 6 m/s 737 mmHg 64%
    22:00 +8°C° 0 mm 7 m/s 737 mmHg 64%
    23:00 +8°C° 0 mm 7 m/s 737 mmHg 63%
    Arată mai mult